Location: Unspecified
(0.0000°N, 0.0000°E)
Time: 13:07:02
(UTC+00:00)

Vanguard 2 Rocket - Visible Passes

Search period start: 24 April 2017 00:00
Search period end: 04 May 2017 00:00
Orbit: 554 x 3328 km, 32.9° (Epoch: 22 April)

Date Brightness Start Highest point End Pass type
(mag) Time Alt. Az. Time Alt. Az. Time Alt. Az.
24 Apr 9.5 03:17:37 14° SSE 03:17:37 14° SSE 03:19:14 10° SSE visible
24 Apr 9.6 05:27:42 10° SSW 05:30:16 11° S 05:33:10 10° S visible
25 Apr 9.4 04:27:46 11° SSW 04:29:04 11° S 04:31:54 10° S visible
02 May 9.3 20:29:16 10° N 20:30:51 12° N 20:30:51 12° N visible
03 May 9.3 19:30:20 10° N 19:31:39 10° NNE 19:32:51 10° NNE visible
